Weather at Ramona Airport

Public forecast

Using degrees Fahrenheit for public forecast. Weather courtesy of forecast.io.

Current aviation weather report (METAR) for Ramona Airport

Retrieved 2021/11/26 23:53 UTC (12 minutes ago):

KRNM 262353Z VRB04KT 10SM CLR 24/M06 A3003 RMK AO2 SLP161 T02441061 10267 20233 55007

Closest aviation forecast (TAF) to Ramona Airport

Forecast is more than 12 hours old.

Closest forecast is Miramar Marine Corps Air Station - Mitscher Field, 15.4 nm (28.5 km) SW. Retrieved 2020/04/17 09:18 UTC (2 years ago):

TAF KNKX 171200Z 1709/1809 VRB05KT 9999 SCT030 QNH2992INS TEMPO 1709/1715 BKN010 TEMPO 1719/1801 24010G15KT T12/1710Z T22/1721Z